Skip Page Navigation
NASA JPL Caltech
NASA Logo - Jet Propulsion Laboratory + View the NASA Portal
+ Center for Near-Earth Object Studies
JPL Home Earth Solar System Stars & Galaxies Technology
JPL Solar System Dynamics
BODIES ORBITS EPHEMERIDES TOOLS PHYSICAL DATA DISCOVERY FAQ SITE MAP
JPL Small-Body Database Browser
Search: [ help ]  
120428 (2128 T-3)
Classification: Main-belt Asteroid          SPK-ID: 2120428
Ephemeris | Orbit Diagram | Orbital Elements | Mission Design | Physical Parameters | Discovery Circumstances | Close-Approach Data ]

[ show orbit diagram ]
Orbital Elements at Epoch 2459200.5 (2020-Dec-17.0) TDB
Reference: JPL 17 (heliocentric ecliptic J2000)
 Element Value Uncertainty (1-sigma)   Units 
e .1203389657348862 3.9482e-08  
a 3.144239049212556 2.7273e-08 au
q 2.765864574007075 1.3585e-07 au
i 7.79704056780036 5.2475e-06 deg
node 215.9129676561313 2.9385e-05 deg
peri 90.82724549301517 3.7641e-05 deg
M 315.1720116049894 2.5244e-05 deg
tp 2459454.082052361573
(2021-Aug-27.58205236)
0.00014441 TDB
period 2036.44067286157
5.58
2.6496e-05
7.254e-08
d
yr
n .1767790266603418 2.3e-09 deg/d
Q 3.522613524418036 3.0555e-08 au
  Orbit Determination Parameters
   # obs. used (total)      664  
   data-arc span      21765 days (59.59 yr)  
   first obs. used      1960-10-22  
   last obs. used      2020-05-25  
   planetary ephem.      DE431  
   SB-pert. ephem.      SB431-N16  
   condition code      0  
   norm. resid. RMS      .54801  
   source      ORB  
   producer      Otto Matic  
   solution date      2020-Nov-12 17:57:13  

Additional Information
 Earth MOID = 1.76375 au 
 Jupiter MOID = 1.75493 au 
 T_jup = 3.184 
[ show covariance matrix ]

Ephemeris | Orbit Diagram | Orbital Elements | Mission Design | Physical Parameters | Discovery Circumstances | Close-Approach Data ]

Physical Parameter Table
Parameter Symbol Value Units Sigma Reference Notes
absolute magnitude H 14.85   n/a E2021B55  
diameter diameter 6.584 km 0.143 urn:nasa:pds:neowise_diameters_albedos::2.0[mainbelt] (http://adsabs.harvard.edu/abs/2011ApJ...741...68M)  
geometric albedo albedo 0.054   0.010 urn:nasa:pds:neowise_diameters_albedos::2.0[mainbelt] (http://adsabs.harvard.edu/abs/2011ApJ...741...68M)  

120428 (2128 T-3)          Discovered 1977-Oct-16 by van Houten, C. J., van Houten-Groeneveld, I., Gehrels, T. at Palomar
Reference: 20051116/Numbers.arcLast Updated: 2005-11-21

[ show close-approach data ]
Alternate Designations
 2128 T-3 = 2000 WC177 
Ephemeris | Orbit Diagram | Orbital Elements | Mission Design | Physical Parameters | Discovery Circumstances | Close-Approach Data ]
ABOUT SSD CREDITS/AWARDS PRIVACY/COPYRIGHT GLOSSARY LINKS
FirstGov 2021-Apr-11 16:56 UT
(server date/time)  
NASA Home Page
Site Manager:   Ryan S. Park
Webmaster  Alan B. Chamberlin